Location: Unspecified
(0.0000°N, 0.0000°E)
Time: 06:43:45
(UTC+02:00)

Ariane H10 - Visible Passes

Search period start: 27 July 2017 00:00
Search period end: 06 August 2017 00:00
Orbit: 408 x 35075 km, 4.1° (Epoch: 25 July)

Date Brightness Start Highest point End Pass type
(mag) Time Alt. Az. Time Alt. Az. Time Alt. Az.
27 Jul 11.0 01:09:28 10° E 02:35:37 15° E 03:31:55 10° E visible
27 Jul 9.9 06:25:34 11° W 07:31:25 18° W 09:27:53 10° W visible
28 Jul 7.8 02:12:20 10° W 03:59:47 74° WSW 11:56:36 10° E visible
28 Jul 7.2 22:40:55 10° W 22:53:49 87° S 08:26:32 10° E visible
30 Jul 10.8 00:12:55 10° E 03:06:12 25° E 04:28:37 10° E visible
31 Jul 7.3 02:46:04 10° W 04:33:09 63° W 12:27:36 10° E visible
31 Jul 7.8 23:12:11 10° W 23:29:50 86° S 08:59:00 10° E visible
01 Aug 4.8 19:45:56 10° W 19:50:08 80° N 20:16:56 10° E visible
03 Aug 6.9 03:20:56 10° W 05:05:52 52° W 12:58:28 10° E visible
03 Aug 8.2 23:43:37 10° W 00:08:53 85° S 09:30:58 10° E visible
04 Aug 5.4 20:16:41 10° W 20:21:58 86° N 05:50:35 10° E visible
